Year,Month,Day,Hour,Minute,Value (Times are PST for temperature in C)
2015,06,27,00,00,19.70
2015,06,27,00,01,19.70
2015,06,27,00,02,19.60
2015,06,27,00,03,19.60
2015,06,27,00,04,19.60
2015,06,27,00,05,19.60
2015,06,27,00,06,19.60
2015,06,27,00,07,19.60
2015,06,27,00,08,19.60
2015,06,27,00,09,19.60
2015,06,27,00,10,19.60
2015,06,27,00,11,19.50
2015,06,27,00,12,19.50
2015,06,27,00,13,19.50
2015,06,27,00,14,19.50
2015,06,27,00,15,19.40
2015,06,27,00,16,19.40
2015,06,27,00,17,19.40
2015,06,27,00,18,19.40
2015,06,27,00,19,19.30
2015,06,27,00,20,19.30
2015,06,27,00,21,19.30
2015,06,27,00,22,19.30
2015,06,27,00,23,19.30
2015,06,27,00,24,19.20
2015,06,27,00,25,19.20
2015,06,27,00,26,19.20
2015,06,27,00,27,19.20
2015,06,27,00,28,19.20
2015,06,27,00,29,19.10
2015,06,27,00,30,19.10
2015,06,27,00,31,19.10
2015,06,27,00,32,19.10
2015,06,27,00,33,19.10
2015,06,27,00,34,19.00
2015,06,27,00,35,19.00
2015,06,27,00,36,19.00
2015,06,27,00,37,18.90
2015,06,27,00,38,18.90
2015,06,27,00,39,18.90
2015,06,27,00,40,18.90
2015,06,27,00,41,18.80
2015,06,27,00,42,18.80
2015,06,27,00,43,18.80
2015,06,27,00,44,18.80
2015,06,27,00,45,18.80
2015,06,27,00,46,18.70
2015,06,27,00,47,18.70
2015,06,27,00,48,18.70
2015,06,27,00,49,18.70
2015,06,27,00,50,18.70
2015,06,27,00,51,18.70
2015,06,27,00,52,18.70
2015,06,27,00,53,18.70
2015,06,27,00,54,18.70
2015,06,27,00,55,18.70
2015,06,27,00,56,18.70
2015,06,27,00,57,18.70
2015,06,27,00,58,18.60
2015,06,27,00,59,18.60
2015,06,27,01,00,18.60
2015,06,27,01,01,18.60
2015,06,27,01,02,18.60
2015,06,27,01,03,18.50
2015,06,27,01,04,18.50
2015,06,27,01,05,18.50
2015,06,27,01,06,18.40
2015,06,27,01,07,18.40
2015,06,27,01,08,18.40
2015,06,27,01,09,18.40
2015,06,27,01,10,18.40
2015,06,27,01,11,18.30
2015,06,27,01,12,18.30
2015,06,27,01,13,18.30
2015,06,27,01,14,18.30
2015,06,27,01,15,18.30
2015,06,27,01,16,18.30
2015,06,27,01,17,18.30
2015,06,27,01,18,18.30
2015,06,27,01,19,18.30
2015,06,27,01,20,18.30
2015,06,27,01,21,18.30
2015,06,27,01,22,18.30
2015,06,27,01,23,18.30
2015,06,27,01,24,18.30
2015,06,27,01,25,18.30
2015,06,27,01,26,18.30
2015,06,27,01,27,18.40
2015,06,27,01,28,18.40
2015,06,27,01,29,18.40
2015,06,27,01,30,18.40
2015,06,27,01,31,18.40
2015,06,27,01,32,18.40
2015,06,27,01,33,18.40
2015,06,27,01,34,18.40
2015,06,27,01,35,18.40
2015,06,27,01,36,18.40
2015,06,27,01,37,18.40
2015,06,27,01,38,18.40
2015,06,27,01,39,18.40
2015,06,27,01,40,18.40
2015,06,27,01,41,18.40
2015,06,27,01,42,18.40
2015,06,27,01,43,18.30
2015,06,27,01,44,18.30
2015,06,27,01,45,18.30
2015,06,27,01,46,18.30
2015,06,27,01,47,18.30
2015,06,27,01,48,18.30
2015,06,27,01,49,18.30
2015,06,27,01,50,18.30
2015,06,27,01,51,18.30
2015,06,27,01,52,18.20
2015,06,27,01,53,18.20
2015,06,27,01,54,18.20
2015,06,27,01,55,18.20
2015,06,27,01,56,18.20
2015,06,27,01,57,18.20
2015,06,27,01,58,18.20
2015,06,27,01,59,18.20
2015,06,27,02,00,18.20
2015,06,27,02,01,18.20
2015,06,27,02,02,18.20
2015,06,27,02,03,18.20
2015,06,27,02,04,18.20
2015,06,27,02,05,18.20
2015,06,27,02,06,18.20
2015,06,27,02,07,18.20
2015,06,27,02,08,18.20
2015,06,27,02,09,18.20
2015,06,27,02,10,18.20
2015,06,27,02,11,18.20
2015,06,27,02,12,18.20
2015,06,27,02,13,18.20
2015,06,27,02,14,18.20
2015,06,27,02,15,18.20
2015,06,27,02,16,18.20
2015,06,27,02,17,18.20
2015,06,27,02,18,18.20
2015,06,27,02,19,18.20
2015,06,27,02,20,18.10
2015,06,27,02,21,18.10
2015,06,27,02,22,18.10
2015,06,27,02,23,18.10
2015,06,27,02,24,18.10
2015,06,27,02,25,18.10
2015,06,27,02,26,18.00
2015,06,27,02,27,18.00
2015,06,27,02,28,17.90
2015,06,27,02,29,17.90
2015,06,27,02,30,17.90
2015,06,27,02,31,17.90
2015,06,27,02,32,17.90
2015,06,27,02,33,17.90
2015,06,27,02,34,17.90
2015,06,27,02,35,17.80
2015,06,27,02,36,17.80
2015,06,27,02,37,17.80
2015,06,27,02,38,17.80
2015,06,27,02,39,17.80
2015,06,27,02,40,17.80
2015,06,27,02,41,17.70
2015,06,27,02,42,17.70
2015,06,27,02,43,17.70
2015,06,27,02,44,17.70
2015,06,27,02,45,17.70
2015,06,27,02,46,17.70
2015,06,27,02,47,17.70
2015,06,27,02,48,17.70
2015,06,27,02,49,17.70
2015,06,27,02,50,17.70
2015,06,27,02,51,17.70
2015,06,27,02,52,17.70
2015,06,27,02,53,17.70
2015,06,27,02,54,17.70
2015,06,27,02,55,17.70
2015,06,27,02,56,17.70
2015,06,27,02,57,17.70
2015,06,27,02,58,17.70
2015,06,27,02,59,17.70
2015,06,27,03,00,17.70
2015,06,27,03,01,17.70
2015,06,27,03,02,17.70
2015,06,27,03,06,17.80
2015,06,27,03,07,17.80
2015,06,27,03,08,17.80
2015,06,27,03,09,17.80
2015,06,27,03,10,17.80
2015,06,27,03,11,17.90
2015,06,27,03,12,17.90
2015,06,27,03,13,17.90
2015,06,27,03,14,17.90
2015,06,27,03,15,17.90
2015,06,27,03,16,17.90
2015,06,27,03,17,17.80
2015,06,27,03,18,17.80
2015,06,27,03,19,17.80
2015,06,27,03,20,17.80
2015,06,27,03,21,17.70
2015,06,27,03,22,17.70
2015,06,27,03,23,17.70
2015,06,27,03,24,17.70
2015,06,27,03,25,17.60
2015,06,27,03,26,17.60
2015,06,27,03,27,17.60
2015,06,27,03,28,17.60
2015,06,27,03,29,17.50
2015,06,27,03,30,17.50
2015,06,27,03,31,17.40
2015,06,27,03,32,17.40
2015,06,27,03,33,17.40
2015,06,27,03,34,17.30
2015,06,27,03,35,17.30
2015,06,27,03,36,17.30
2015,06,27,03,37,17.30
2015,06,27,03,38,17.30
2015,06,27,03,39,17.40
2015,06,27,03,40,17.40
2015,06,27,03,41,17.40
2015,06,27,03,42,17.50
2015,06,27,03,43,17.60
2015,06,27,03,44,17.60
2015,06,27,03,45,17.60
2015,06,27,03,46,17.70
2015,06,27,03,47,17.70
2015,06,27,03,48,17.80
2015,06,27,03,49,17.80
2015,06,27,03,50,17.80
2015,06,27,03,51,17.90
2015,06,27,03,52,17.90
2015,06,27,03,53,18.00
2015,06,27,03,54,18.10
2015,06,27,03,55,18.10
2015,06,27,03,56,18.20
2015,06,27,03,57,18.20
2015,06,27,03,58,18.30
2015,06,27,03,59,18.30
2015,06,27,04,00,18.40
2015,06,27,04,01,18.40
2015,06,27,04,02,18.50
2015,06,27,04,03,18.60
2015,06,27,04,04,18.70
2015,06,27,04,05,18.70
2015,06,27,04,06,18.80
2015,06,27,04,07,18.80
2015,06,27,04,08,18.90
2015,06,27,04,09,18.90
2015,06,27,04,10,18.90
2015,06,27,04,11,19.00
2015,06,27,04,12,19.00
2015,06,27,04,13,19.10
2015,06,27,04,14,19.10
2015,06,27,04,15,19.10
2015,06,27,04,16,19.10
2015,06,27,04,17,19.10
2015,06,27,04,18,19.10
2015,06,27,04,19,19.10
2015,06,27,04,20,19.10
2015,06,27,04,21,19.10
2015,06,27,04,22,19.20
2015,06,27,04,23,19.20
2015,06,27,04,24,19.10
2015,06,27,04,25,19.10
2015,06,27,04,26,19.10
2015,06,27,04,27,19.10
2015,06,27,04,28,19.10
2015,06,27,04,29,19.10
2015,06,27,04,30,19.10
2015,06,27,04,31,19.10
2015,06,27,04,32,19.10
2015,06,27,04,33,19.10
2015,06,27,04,34,19.10
2015,06,27,04,35,19.10
2015,06,27,04,36,19.10
2015,06,27,04,37,19.10
2015,06,27,04,38,19.10
2015,06,27,04,39,19.00
2015,06,27,04,40,19.00
2015,06,27,04,41,19.00
2015,06,27,04,42,19.00
2015,06,27,04,43,19.00
2015,06,27,04,44,18.90
2015,06,27,04,45,18.90
2015,06,27,04,46,18.90
2015,06,27,04,47,18.90
2015,06,27,04,48,18.90
2015,06,27,04,49,18.90
2015,06,27,04,50,18.90
2015,06,27,04,51,18.90
2015,06,27,04,52,18.90
2015,06,27,04,53,18.90
2015,06,27,04,54,18.90
2015,06,27,04,55,18.90
2015,06,27,04,56,18.90
2015,06,27,04,57,18.90
2015,06,27,04,58,18.90
2015,06,27,04,59,18.90
2015,06,27,05,00,18.90
2015,06,27,05,01,18.90
2015,06,27,05,02,18.90
2015,06,27,05,03,18.90
2015,06,27,05,04,18.90
2015,06,27,05,05,18.90
2015,06,27,05,06,18.90
2015,06,27,05,07,18.90
2015,06,27,05,08,18.90
2015,06,27,05,09,18.90
2015,06,27,05,10,18.90
2015,06,27,05,11,18.90
2015,06,27,05,12,18.90
2015,06,27,05,13,18.90
2015,06,27,05,14,18.90
2015,06,27,05,15,18.90
2015,06,27,05,16,18.90
2015,06,27,05,17,18.90
2015,06,27,05,18,18.90
2015,06,27,05,19,18.90
2015,06,27,05,20,18.90
2015,06,27,05,21,18.90
2015,06,27,05,22,18.90
2015,06,27,05,23,18.90
2015,06,27,05,24,18.90
2015,06,27,05,25,18.90
2015,06,27,05,26,18.90
2015,06,27,05,27,18.90
2015,06,27,05,28,18.90
2015,06,27,05,29,18.90
2015,06,27,05,30,18.90
2015,06,27,05,31,18.90
2015,06,27,05,32,18.90
2015,06,27,05,33,18.90
2015,06,27,05,34,18.90
2015,06,27,05,35,18.90
2015,06,27,05,36,18.90
2015,06,27,05,37,18.90
2015,06,27,05,38,18.90
2015,06,27,05,39,18.90
2015,06,27,05,40,18.90
2015,06,27,05,41,18.90
2015,06,27,05,42,18.90
2015,06,27,05,43,18.90
2015,06,27,05,44,18.90
2015,06,27,05,45,18.90
2015,06,27,05,46,19.00
2015,06,27,05,47,19.00
2015,06,27,05,48,19.00
2015,06,27,05,49,19.00
2015,06,27,05,50,19.00
2015,06,27,05,51,19.10
2015,06,27,05,52,19.10
2015,06,27,05,53,19.10
2015,06,27,05,54,19.10
2015,06,27,05,55,19.10
2015,06,27,05,56,19.10
2015,06,27,05,57,19.10
2015,06,27,05,58,19.10
2015,06,27,05,59,19.10
2015,06,27,06,00,19.10
2015,06,27,06,01,19.10
2015,06,27,06,02,19.10
2015,06,27,06,03,19.10
2015,06,27,06,04,19.10
2015,06,27,06,05,19.10
2015,06,27,06,06,19.10
2015,06,27,06,07,19.10
2015,06,27,06,08,19.10
2015,06,27,06,09,19.10
2015,06,27,06,10,19.10
2015,06,27,06,11,19.10
2015,06,27,06,12,19.10
2015,06,27,06,13,19.10
2015,06,27,06,14,19.10
2015,06,27,06,15,19.10
2015,06,27,06,16,19.10
2015,06,27,06,17,19.10
2015,06,27,06,18,19.10
2015,06,27,06,19,19.10
2015,06,27,06,20,19.10
2015,06,27,06,21,19.10
2015,06,27,06,22,19.20
2015,06,27,06,23,19.20
2015,06,27,06,24,19.20
2015,06,27,06,25,19.20
2015,06,27,06,26,19.20
2015,06,27,06,27,19.20
2015,06,27,06,28,19.20
2015,06,27,06,29,19.20
2015,06,27,06,30,19.20
2015,06,27,06,31,19.30
2015,06,27,06,32,19.30
2015,06,27,06,33,19.30
2015,06,27,06,34,19.30
2015,06,27,06,35,19.30
2015,06,27,06,36,19.30
2015,06,27,06,37,19.30
2015,06,27,06,38,19.30
2015,06,27,06,39,19.30
2015,06,27,06,40,19.30
2015,06,27,06,41,19.30
2015,06,27,06,42,19.30
2015,06,27,06,43,19.30
2015,06,27,06,44,19.30
2015,06,27,06,45,19.30
2015,06,27,06,46,19.30
2015,06,27,06,47,19.30
2015,06,27,06,48,19.30
2015,06,27,06,49,19.30
2015,06,27,06,50,19.30
2015,06,27,06,51,19.30
2015,06,27,06,52,19.40
2015,06,27,06,53,19.40
2015,06,27,06,54,19.40
2015,06,27,06,55,19.40
2015,06,27,06,56,19.40
2015,06,27,06,57,19.40
2015,06,27,06,58,19.40
2015,06,27,06,59,19.50
2015,06,27,07,00,19.50
2015,06,27,07,01,19.50
2015,06,27,07,02,19.50
2015,06,27,07,03,19.50
2015,06,27,07,04,19.50
2015,06,27,07,05,19.50
2015,06,27,07,06,19.50
2015,06,27,07,07,19.50
2015,06,27,07,08,19.50
2015,06,27,07,09,19.50
2015,06,27,07,10,19.50
2015,06,27,07,11,19.50
2015,06,27,07,12,19.60
2015,06,27,07,13,19.60
2015,06,27,07,14,19.60
2015,06,27,07,15,19.60
2015,06,27,07,16,19.60
2015,06,27,07,17,19.60
2015,06,27,07,18,19.60
2015,06,27,07,19,19.60
2015,06,27,07,20,19.60
2015,06,27,07,21,19.60
2015,06,27,07,22,19.60
2015,06,27,07,23,19.70
2015,06,27,07,24,19.70
2015,06,27,07,25,19.70
2015,06,27,07,26,19.70
2015,06,27,07,27,19.70
2015,06,27,07,28,19.70
2015,06,27,07,29,19.70
2015,06,27,07,30,19.80
2015,06,27,07,31,19.80
2015,06,27,07,32,19.80
2015,06,27,07,33,19.80
2015,06,27,07,34,19.80
2015,06,27,07,35,19.80
2015,06,27,07,36,19.80
2015,06,27,07,37,19.90
2015,06,27,07,38,19.90
2015,06,27,07,39,19.90
2015,06,27,07,40,19.90
2015,06,27,07,41,19.90
2015,06,27,07,42,19.90
2015,06,27,07,43,19.90
2015,06,27,07,44,19.90
2015,06,27,07,45,19.90
2015,06,27,07,46,20.00
2015,06,27,07,47,20.00
2015,06,27,07,48,20.10
2015,06,27,07,49,20.10
2015,06,27,07,50,20.10
2015,06,27,07,51,20.10
2015,06,27,07,52,20.20
2015,06,27,07,53,20.20
2015,06,27,07,54,20.20
2015,06,27,07,55,20.20
2015,06,27,07,56,20.30
2015,06,27,07,57,20.30
2015,06,27,07,58,20.30
2015,06,27,07,59,20.30
2015,06,27,08,00,20.30
2015,06,27,08,01,20.30
2015,06,27,08,02,20.40
2015,06,27,08,03,20.40
2015,06,27,08,04,20.40
2015,06,27,08,05,20.40
2015,06,27,08,06,20.40
2015,06,27,08,07,20.50
2015,06,27,08,08,20.50
2015,06,27,08,09,20.50
2015,06,27,08,10,20.50
2015,06,27,08,11,20.50
2015,06,27,08,12,20.50
2015,06,27,08,13,20.50
2015,06,27,08,14,20.50
2015,06,27,08,15,20.50
2015,06,27,08,16,20.60
2015,06,27,08,17,20.60
2015,06,27,08,18,20.60
2015,06,27,08,19,20.60
2015,06,27,08,20,20.70
2015,06,27,08,21,20.70
2015,06,27,08,22,20.70
2015,06,27,08,23,20.70
2015,06,27,08,24,20.70
2015,06,27,08,25,20.80
2015,06,27,08,26,20.80
2015,06,27,08,27,20.80
2015,06,27,08,28,20.80
2015,06,27,08,29,20.80
2015,06,27,08,30,20.90
2015,06,27,08,31,20.90
2015,06,27,08,32,20.90
2015,06,27,08,33,20.90
2015,06,27,08,34,20.90
2015,06,27,08,35,20.90
2015,06,27,08,36,20.90
2015,06,27,08,37,20.80
2015,06,27,08,38,20.80
2015,06,27,08,39,20.80
2015,06,27,08,40,20.80
2015,06,27,08,41,20.80
2015,06,27,08,42,20.80
2015,06,27,08,43,20.80
2015,06,27,08,44,20.80
2015,06,27,08,45,20.80
2015,06,27,08,46,20.80
2015,06,27,08,47,20.80
2015,06,27,08,48,20.80
2015,06,27,08,49,20.80
2015,06,27,08,50,20.80
2015,06,27,08,51,20.80
2015,06,27,08,52,20.80
2015,06,27,08,53,20.90
2015,06,27,08,54,20.90
2015,06,27,08,55,20.90
2015,06,27,08,56,20.90
2015,06,27,08,57,20.90
2015,06,27,08,58,21.00
2015,06,27,08,59,21.00
2015,06,27,09,00,21.10
2015,06,27,09,01,21.10
2015,06,27,09,02,21.10
2015,06,27,09,03,21.10
2015,06,27,09,04,21.10
2015,06,27,09,05,21.20
2015,06,27,09,06,21.20
2015,06,27,09,07,21.20
2015,06,27,09,08,21.20
2015,06,27,09,09,21.30
2015,06,27,09,10,21.30
2015,06,27,09,11,21.30
2015,06,27,09,12,21.40
2015,06,27,09,13,21.40
2015,06,27,09,14,21.40
2015,06,27,09,15,21.50
2015,06,27,09,16,21.50
2015,06,27,09,17,21.60
2015,06,27,09,18,21.60
2015,06,27,09,19,21.60
2015,06,27,09,20,21.70
2015,06,27,09,21,21.70
2015,06,27,09,22,21.80
2015,06,27,09,23,21.80
2015,06,27,09,24,21.80
2015,06,27,09,25,21.80
2015,06,27,09,26,21.80
2015,06,27,09,27,21.90
2015,06,27,09,28,22.00
2015,06,27,09,29,22.00
2015,06,27,09,30,22.10
2015,06,27,09,31,22.10
2015,06,27,09,32,22.10
2015,06,27,09,33,22.10
2015,06,27,09,34,22.20
2015,06,27,09,35,22.20
2015,06,27,09,36,22.20
2015,06,27,09,37,22.20
2015,06,27,09,38,22.30
2015,06,27,09,39,22.30
2015,06,27,09,40,22.30
2015,06,27,09,41,22.30
2015,06,27,09,42,22.30
2015,06,27,09,43,22.40
2015,06,27,09,44,22.40
2015,06,27,09,45,22.40
2015,06,27,09,46,22.40
2015,06,27,09,47,22.40
2015,06,27,09,48,22.40
2015,06,27,09,49,22.40
2015,06,27,09,50,22.40
2015,06,27,09,51,22.40
2015,06,27,09,52,22.30
2015,06,27,09,53,22.30
2015,06,27,09,54,22.20
2015,06,27,09,55,22.10
2015,06,27,09,56,21.90
2015,06,27,09,57,21.80
2015,06,27,09,58,21.70
2015,06,27,09,59,21.70
2015,06,27,10,00,21.70
2015,06,27,10,01,21.70
2015,06,27,10,02,21.70
2015,06,27,10,03,21.70
2015,06,27,10,04,21.70
2015,06,27,10,05,21.70
2015,06,27,10,06,21.80
2015,06,27,10,07,21.80
2015,06,27,10,08,21.80
2015,06,27,10,09,21.90
2015,06,27,10,10,21.90
2015,06,27,10,11,21.90
2015,06,27,10,12,21.80
2015,06,27,10,13,21.80
2015,06,27,10,14,21.80
2015,06,27,10,15,21.80
2015,06,27,10,16,21.80
2015,06,27,10,17,21.80
2015,06,27,10,18,21.80
2015,06,27,10,19,21.80
2015,06,27,10,20,21.80
2015,06,27,10,21,21.80
2015,06,27,10,22,21.90
2015,06,27,10,23,21.90
2015,06,27,10,24,21.90
2015,06,27,10,25,22.00
2015,06,27,10,26,22.00
2015,06,27,10,27,22.00
2015,06,27,10,28,22.00
2015,06,27,10,29,22.00
2015,06,27,10,30,21.90
2015,06,27,10,31,21.90
2015,06,27,10,32,21.80
2015,06,27,10,33,21.80
2015,06,27,10,34,21.80
2015,06,27,10,35,21.70
2015,06,27,10,36,21.70
2015,06,27,10,37,21.70
2015,06,27,10,38,21.70
2015,06,27,10,39,21.70
2015,06,27,10,40,21.60
2015,06,27,10,41,21.60
2015,06,27,10,42,21.60
2015,06,27,10,43,21.60
2015,06,27,10,44,21.60
2015,06,27,10,45,21.60
2015,06,27,10,46,21.60
2015,06,27,10,47,21.60
2015,06,27,10,48,21.60
2015,06,27,10,49,21.60
2015,06,27,10,50,21.70
2015,06,27,10,51,21.70
2015,06,27,10,52,21.80
2015,06,27,10,53,21.90
2015,06,27,10,54,22.00
2015,06,27,10,55,22.10
2015,06,27,10,56,22.20
2015,06,27,10,57,22.20
2015,06,27,10,58,22.30
2015,06,27,10,59,22.30
2015,06,27,11,00,22.40
2015,06,27,11,01,22.50
2015,06,27,11,02,22.50
2015,06,27,11,03,22.60
2015,06,27,11,04,22.70
2015,06,27,11,05,22.70
2015,06,27,11,06,22.80
2015,06,27,11,07,22.90
2015,06,27,11,08,23.00
2015,06,27,11,09,23.10
2015,06,27,11,10,23.20
2015,06,27,11,11,23.30
2015,06,27,11,12,23.40
2015,06,27,11,13,23.50
2015,06,27,11,14,23.60
2015,06,27,11,15,23.60
2015,06,27,11,16,23.70
2015,06,27,11,17,23.80
2015,06,27,11,18,23.80
2015,06,27,11,19,23.80
2015,06,27,11,20,23.80
2015,06,27,11,21,23.80
2015,06,27,11,22,23.90
2015,06,27,11,23,23.90
2015,06,27,11,24,23.90
2015,06,27,11,25,23.90
2015,06,27,11,26,23.90
2015,06,27,11,27,23.90
2015,06,27,11,28,23.80
2015,06,27,11,29,23.90
2015,06,27,11,30,24.00
2015,06,27,11,31,24.10
2015,06,27,11,32,24.20
2015,06,27,11,33,24.30
2015,06,27,11,34,24.40
2015,06,27,11,35,24.60
2015,06,27,11,36,24.70
2015,06,27,11,37,24.80
2015,06,27,11,38,24.90
2015,06,27,11,39,25.00
2015,06,27,11,40,25.10
2015,06,27,11,41,25.20
2015,06,27,11,42,25.30
2015,06,27,11,43,25.40
2015,06,27,11,44,25.60
2015,06,27,11,45,25.70
2015,06,27,11,46,25.70
2015,06,27,11,47,25.80
2015,06,27,11,48,25.80
2015,06,27,11,49,25.80
2015,06,27,11,50,25.90
2015,06,27,11,51,26.00
2015,06,27,11,52,26.00
2015,06,27,11,53,26.10
2015,06,27,11,54,26.00
2015,06,27,11,55,26.00
2015,06,27,11,56,25.90
2015,06,27,11,57,25.90
2015,06,27,11,58,25.90
2015,06,27,11,59,26.00
2015,06,27,12,00,26.10
2015,06,27,12,01,26.20
2015,06,27,12,02,26.40
2015,06,27,12,03,26.50
2015,06,27,12,04,26.50
2015,06,27,12,05,26.60
2015,06,27,12,06,26.60
2015,06,27,12,07,26.60
2015,06,27,12,08,26.60
2015,06,27,12,09,26.60
2015,06,27,12,10,26.60
2015,06,27,12,11,26.60
2015,06,27,12,12,26.60
2015,06,27,12,13,26.60
2015,06,27,12,14,26.60
2015,06,27,12,15,26.60
2015,06,27,12,16,26.60
2015,06,27,12,17,26.60
2015,06,27,12,18,26.60
2015,06,27,12,19,26.60
2015,06,27,12,20,26.60
2015,06,27,12,21,26.60
2015,06,27,12,22,26.60
2015,06,27,12,23,26.60
2015,06,27,12,24,26.50
2015,06,27,12,25,26.60
2015,06,27,12,26,26.60
2015,06,27,12,27,26.70
2015,06,27,12,28,26.80
2015,06,27,12,29,26.90
2015,06,27,12,30,27.00
2015,06,27,12,31,27.10
2015,06,27,12,32,27.10
2015,06,27,12,33,27.10
2015,06,27,12,34,27.20
2015,06,27,12,35,27.20
2015,06,27,12,36,27.20
2015,06,27,12,37,27.20
2015,06,27,12,38,27.30
2015,06,27,12,39,27.40
2015,06,27,12,40,27.40
2015,06,27,12,41,27.40
2015,06,27,12,42,27.40
2015,06,27,12,43,27.50
2015,06,27,12,44,27.50
2015,06,27,12,45,27.60
2015,06,27,12,46,27.60
2015,06,27,12,47,27.70
2015,06,27,12,48,27.70
2015,06,27,12,49,27.70
2015,06,27,12,50,27.80
2015,06,27,12,51,27.80
2015,06,27,12,52,27.80
2015,06,27,12,53,27.80
2015,06,27,12,54,27.80
2015,06,27,12,55,27.70
2015,06,27,12,56,27.40
2015,06,27,12,57,27.30
2015,06,27,12,58,27.10
2015,06,27,12,59,26.90
2015,06,27,13,00,26.80
2015,06,27,13,01,26.70
2015,06,27,13,02,26.60
2015,06,27,13,03,26.50
2015,06,27,13,04,26.60
2015,06,27,13,05,26.70
2015,06,27,13,06,26.80
2015,06,27,13,07,26.90
2015,06,27,13,08,27.00
2015,06,27,13,09,27.10
2015,06,27,13,10,27.20
2015,06,27,13,11,27.30
2015,06,27,13,12,27.40
2015,06,27,13,13,27.40
2015,06,27,13,14,27.50
2015,06,27,13,15,27.50
2015,06,27,13,16,27.60
2015,06,27,13,17,27.50
2015,06,27,13,18,27.40
2015,06,27,13,19,27.40
2015,06,27,13,20,27.40
2015,06,27,13,21,27.50
2015,06,27,13,22,27.50
2015,06,27,13,23,27.40
2015,06,27,13,24,27.40
2015,06,27,13,25,27.40
2015,06,27,13,26,27.40
2015,06,27,13,27,27.40
2015,06,27,13,28,27.40
2015,06,27,13,29,27.40
2015,06,27,13,30,27.50
2015,06,27,13,31,27.50
2015,06,27,13,32,27.60
2015,06,27,13,33,27.70
2015,06,27,13,34,27.70
2015,06,27,13,35,27.70
2015,06,27,13,36,27.70
2015,06,27,13,37,27.70
2015,06,27,13,38,27.70
2015,06,27,13,39,27.70
2015,06,27,13,40,27.70
2015,06,27,13,41,27.60
2015,06,27,13,42,27.70
2015,06,27,13,43,27.70
2015,06,27,13,44,27.80
2015,06,27,13,45,27.80
2015,06,27,13,46,27.80
2015,06,27,13,47,27.90
2015,06,27,13,48,27.90
2015,06,27,13,49,27.90
2015,06,27,13,50,27.90
2015,06,27,13,51,27.90
2015,06,27,13,52,27.90
2015,06,27,13,53,27.80
2015,06,27,13,54,27.70
2015,06,27,13,55,27.60
2015,06,27,13,56,27.50
2015,06,27,13,57,27.40
2015,06,27,13,58,27.20
2015,06,27,13,59,27.10
2015,06,27,14,00,26.90
2015,06,27,14,01,26.80
2015,06,27,14,02,26.70
2015,06,27,14,03,26.60
2015,06,27,14,04,26.70
2015,06,27,14,05,26.80
2015,06,27,14,06,26.90
2015,06,27,14,07,26.90
2015,06,27,14,08,27.00
2015,06,27,14,09,27.10
2015,06,27,14,10,27.10
2015,06,27,14,11,27.10
2015,06,27,14,12,27.20
2015,06,27,14,13,27.30
2015,06,27,14,14,27.30
2015,06,27,14,15,27.30
2015,06,27,14,16,27.30
2015,06,27,14,17,27.30
2015,06,27,14,18,27.30
2015,06,27,14,19,27.30
2015,06,27,14,20,27.30
2015,06,27,14,21,27.30
2015,06,27,14,22,27.30
2015,06,27,14,23,27.40
2015,06,27,14,24,27.30
2015,06,27,14,25,27.30
2015,06,27,14,26,27.20
2015,06,27,14,27,27.20
2015,06,27,14,28,27.10
2015,06,27,14,29,27.10
2015,06,27,14,30,27.10
2015,06,27,14,31,27.20
2015,06,27,14,32,27.20
2015,06,27,14,33,27.20
2015,06,27,14,34,27.30
2015,06,27,14,35,27.30
2015,06,27,14,36,27.30
2015,06,27,14,37,27.40
2015,06,27,14,38,27.30
2015,06,27,14,39,27.30
2015,06,27,14,40,27.20
2015,06,27,14,41,27.10
2015,06,27,14,42,27.10
2015,06,27,14,43,27.10
2015,06,27,14,44,27.10
2015,06,27,14,45,27.20
2015,06,27,14,46,27.20
2015,06,27,14,47,27.20
2015,06,27,14,48,27.30
2015,06,27,14,49,27.30
2015,06,27,14,50,27.40
2015,06,27,14,51,27.50
2015,06,27,14,52,27.60
2015,06,27,14,53,27.60
2015,06,27,14,54,27.60
2015,06,27,14,55,27.70
2015,06,27,14,56,27.70
2015,06,27,14,57,27.80
2015,06,27,14,58,28.00
2015,06,27,14,59,28.10
2015,06,27,15,00,28.20
2015,06,27,15,01,28.30
2015,06,27,15,02,28.40
2015,06,27,15,03,28.40
2015,06,27,15,04,28.50
2015,06,27,15,05,28.60
2015,06,27,15,06,28.60
2015,06,27,15,07,28.60
2015,06,27,15,08,28.60
2015,06,27,15,09,28.60
2015,06,27,15,10,28.60
2015,06,27,15,11,28.60
2015,06,27,15,12,28.60
2015,06,27,15,13,28.70
2015,06,27,15,14,28.70
2015,06,27,15,15,28.80
2015,06,27,15,16,28.80
2015,06,27,15,17,28.90
2015,06,27,15,18,28.90
2015,06,27,15,19,29.00
2015,06,27,15,20,29.10
2015,06,27,15,21,29.10
2015,06,27,15,22,29.20
2015,06,27,15,23,29.10
2015,06,27,15,24,29.10
2015,06,27,15,25,29.20
2015,06,27,15,26,29.20
2015,06,27,15,27,29.40
2015,06,27,15,28,29.40
2015,06,27,15,29,29.60
2015,06,27,15,30,29.70
2015,06,27,15,31,29.80
2015,06,27,15,32,29.80
2015,06,27,15,33,29.80
2015,06,27,15,34,29.80
2015,06,27,15,35,29.80
2015,06,27,15,36,29.70
2015,06,27,15,37,29.70
2015,06,27,15,38,29.70
2015,06,27,15,39,29.70
2015,06,27,15,40,29.70
2015,06,27,15,41,29.80
2015,06,27,15,42,29.80
2015,06,27,15,43,29.80
2015,06,27,15,44,29.80
2015,06,27,15,45,29.80
2015,06,27,15,46,29.90
2015,06,27,15,47,29.90
2015,06,27,15,48,29.90
2015,06,27,15,49,29.90
2015,06,27,15,50,29.90
2015,06,27,15,51,30.00
2015,06,27,15,52,30.00
2015,06,27,15,53,29.90
2015,06,27,15,54,29.80
2015,06,27,15,55,29.80
2015,06,27,15,56,29.80
2015,06,27,15,57,29.80
2015,06,27,15,58,29.80
2015,06,27,15,59,29.80
2015,06,27,16,00,29.90
2015,06,27,16,01,30.00
2015,06,27,16,02,30.00
2015,06,27,16,03,30.10
2015,06,27,16,04,30.10
2015,06,27,16,05,30.20
2015,06,27,16,06,30.20
2015,06,27,16,07,30.30
2015,06,27,16,08,30.20
2015,06,27,16,09,30.20
2015,06,27,16,10,30.30
2015,06,27,16,11,30.40
2015,06,27,16,12,30.50
2015,06,27,16,13,30.60
2015,06,27,16,14,30.60
2015,06,27,16,15,30.70
2015,06,27,16,16,30.70
2015,06,27,16,17,30.80
2015,06,27,16,18,30.80
2015,06,27,16,19,30.90
2015,06,27,16,20,31.00
2015,06,27,16,21,31.10
2015,06,27,16,22,31.00
2015,06,27,16,23,31.00
2015,06,27,16,24,31.00
2015,06,27,16,25,31.00
2015,06,27,16,26,31.10
2015,06,27,16,27,31.10
2015,06,27,16,28,31.10
2015,06,27,16,29,31.20
2015,06,27,16,30,31.20
2015,06,27,16,31,31.30
2015,06,27,16,32,31.30
2015,06,27,16,33,31.30
2015,06,27,16,34,31.30
2015,06,27,16,35,31.30
2015,06,27,16,36,31.30
2015,06,27,16,37,31.30
2015,06,27,16,38,31.30
2015,06,27,16,39,31.30
2015,06,27,16,40,31.30
2015,06,27,16,41,31.20
2015,06,27,16,42,31.10
2015,06,27,16,43,31.00
2015,06,27,16,44,31.00
2015,06,27,16,45,30.90
2015,06,27,16,46,30.90
2015,06,27,16,47,30.90
2015,06,27,16,48,30.90
2015,06,27,16,49,30.90
2015,06,27,16,50,30.90
2015,06,27,16,51,30.90
2015,06,27,16,52,30.80
2015,06,27,16,53,30.80
2015,06,27,16,54,30.80
2015,06,27,16,55,30.80
2015,06,27,16,56,30.80
2015,06,27,16,57,30.80
2015,06,27,16,58,30.90
2015,06,27,16,59,30.90
2015,06,27,17,00,30.90
2015,06,27,17,01,30.90
2015,06,27,17,02,31.00
2015,06,27,17,03,31.00
2015,06,27,17,04,31.10
2015,06,27,17,05,31.10
2015,06,27,17,06,31.10
2015,06,27,17,07,31.20
2015,06,27,17,08,31.20
2015,06,27,17,09,31.20
2015,06,27,17,10,31.20
2015,06,27,17,11,31.20
2015,06,27,17,12,31.20
2015,06,27,17,13,31.20
2015,06,27,17,14,31.20
2015,06,27,17,15,31.20
2015,06,27,17,16,31.20
2015,06,27,17,17,31.30
2015,06,27,17,18,31.30
2015,06,27,17,19,31.40
2015,06,27,17,20,31.40
2015,06,27,17,21,31.50
2015,06,27,17,22,31.60